Regional Weather Roundup
Issued by NWS Columbia, SC

Home | Current Version | Previous Version | Text Only | Print | Product List | Glossary On
Versions: 1 2 3 4 5 6 7 8 9 10 11 12 13 14 15 16 17 18 19 20 21 22 23 24 25 26 27 28 29 30 31 32 33 34 35 36 37 38 39 40 41 42 43 44 45 46 47 48 49 50
000
ASUS42 KCAE 240910
RWRCAE
REGIONAL WEATHER ROUNDUP
NATIONAL WEATHER SERVICE COLUMBIA SC
500 AM EDT WED MAY 24 2017

NOTE: "FAIR" INDICATES FEW OR NO CLOUDS BELOW 12,000 FEET WITH NO
SIGNIFICANT WEATHER AND/OR OBSTRUCTIONS TO VISIBILITY.

NOT ALL STATIONS ARE QUALITY CONTROLLED BY THE NATIONAL
WEATHER SERVICE. USE DATA WITH CAUTION...ESPECIALLY
DEWPOINT OBSERVATIONS.

SCZ001>056-GAZ040-063>065-077-241000-
...UPSTATE SOUTH CAROLINA...

CITY           SKY/WX    TMP DP  RH WIND       PRES   REMARKS
ANDERSON       CLOUDY    65  62  90 S7        29.64F
SPARTANBURG    MOCLDY    63  61  94 SW3       29.64S
CLEMSON        CLOUDY    64  61  90 SW3       29.65S
GREENVILLE     MOCLDY    65  62  90 SW5       29.65S
GREENWOOD      CLOUDY    66  63  90 SW7       29.66S
GREER          PTCLDY    64  62  93 SW5       29.63F
ROCK HILL      CLOUDY    64  62  93 W3        29.65F
CHESTER        CLOUDY    63  63 100 CALM      29.65S FOG
LAURENS        CLOUDY    64  64 100 SW10      29.65S


...CENTRAL SOUTH CAROLINA...

CITY           SKY/WX    TMP DP  RH WIND       PRES   REMARKS
COLUMBIA APT   CLOUDY    69  67  93 S5        29.64R FOG
COLUMBIA OWENS CLOUDY    69  68  96 S6        29.66S
MCENTIRE ANGB  CLOUDY    67  67 100 S6        29.66S
ORANGEBURG     CLOUDY    69  68  96 S8        29.67R
SUMTER SHAW    CLOUDY    68  67  94 S8        29.63S
NEWBERRY       CLOUDY    64  64 100 SW7       29.67S
AIKEN          CLOUDY    66  64  94 S7        29.69R
BARNWELL       CLOUDY    70  70 100 SW6       29.67S
MANNING        CLOUDY    70  70 100 SW20G25   29.67S
CAMDEN         CLOUDY    66  66 100 CALM      29.64F
LANCASTER      CLOUDY    64  64 100 W7        29.65S
WINNSBORO      CLOUDY    64  64 100 S6        29.64F FOG


...EASTERN AND COASTAL SOUTH CAROLINA...

CITY           SKY/WX    TMP DP  RH WIND       PRES   REMARKS
MYRTLE BEACH   CLOUDY    70  68  93 W6        29.69F
N MYRTLE BCH   LGT RAIN  69  69 100 W5        29.68S FOG
CONWAY         CLOUDY    68  68 100 CALM      29.68F
MARION         CLOUDY    68  64  88 CALM      29.67F
HARTSVILLE     CLOUDY    64  64 100 CALM      29.64F
FLORENCE       CLOUDY    68  68 100 CALM      29.65F
DARLINGTON     CLOUDY    67  66  97 SE3       29.65F
CHARLESTON APT CLOUDY    71  69  93 SW8       29.68S
MOUNT PLEASANT FAIR      73  70  88 SW8       29.68F
WALTERBORO     CLOUDY    70  68  94 SW8       29.70R
BEAUFORT       MOCLDY    71  71 100 W7        29.69S


...EASTERN GEORGIA...

CITY           SKY/WX    TMP DP  RH WIND       PRES   REMARKS
AUGUSTA BUSH F LGT RAIN  70  68  93 S7        29.65S
AUGUSTA DANIEL CLOUDY    69  65  86 S6        29.66S
THOMSON        CLOUDY    67  66  97 CALM      29.69F
WASHINGTON     CLOUDY    68  68 100 S3        29.65S
CLAXTON        CLOUDY   N/A N/A N/A CALM      29.68F
SYLVANIA       CLOUDY    69  69 100 CALM      29.68F
STATESBORO     MOCLDY    71  71 100 S5        29.68F
SAVANNAH       MOCLDY    72  68  87 SW7       29.70R


...SOUTHERN NORTH CAROLINA...

CITY           SKY/WX    TMP DP  RH WIND       PRES   REMARKS
CHARLOTTE      CLOUDY    65  62  90 S9        29.66R
MONROE         CLOUDY    64  61  90 VRB6      29.64F
WADESBORO      PTSUNNY   64  62  93 CALM      29.64F
ROCKINGHAM     CLOUDY    64  64 100 S3        29.66S
RUTHERFORDTON  CLOUDY    64  64 100 S5        29.65S
ASHEVILLE      CLOUDY    61  58  90 SE6       29.66S

$$



USA.gov is the U.S. government's official web portal to all federal, state and local government web resources and services.